Crookston, MN

10:21 AM CST on February 13, 2016 (GMT -0600)
Crookston Municipal-Kirkwood

Weather History for KCKN - December, 2013

Change the Weather History Date:

Sunday, December 1, 2013

  Actual Average Record
Temperature  
Mean Temperature 20 °F -  
Max Temperature 21 °F 26 °F 48 °F (1999)
Min Temperature 19 °F 12 °F -14 °F (2014)
Degree Days  
Heating Degree Days 45    
Moisture  
Dew Point 17 °F    
Average Humidity 89    
Maximum Humidity 93    
Minimum Humidity 86    
Precipitation  
Precipitation 0.00 in - - ()
Sea Level Pressure  
Sea Level Pressure 30.09 in    
Wind  
Wind Speed 4 mph (SE)    
Max Wind Speed 13 mph    
Max Gust Speed 16 mph    
Visibility 9 miles    
Events Snow    
Averages and records for this station are not official NWS values.
T = Trace of Precipitation, MM = Missing Value Source: NWS Daily Summary

Daily Weather History Graph

Daily Weather History Graph

Search for Another Location

Airport or City:

Trip Planner

Search our weather history database for the weather conditions in past years. The results will help you decide how hot, cold, wet, or windy it might be!

Date:

Astronomy

Dec. 01, 2013 Rise Set
Actual Time 7:54 AM CST 4:36 PM CST
Civil Twilight 7:19 AM CST 5:11 PM CST
Nautical Twilight 6:40 AM CST 5:50 PM CST
Astronomical Twilight 6:03 AM CST 6:27 PM CST
Moon 6:08 AM CST (12/1) 3:51 PM CST (12/1)
Length of Visible Light 9h 51m
Length of Day
8h 41m
Waning Crescent, 2% of the Moon is Illuminated
Dec 1
Waning Crescent
Dec 2
New
Dec 9
First Quarter
Dec 17
Full
Dec 25
Last Quarter

Hourly Weather History & Observations

Time (CST) Temp. Windchill Dew Point Humidity Pressure Visibility Wind Dir Wind Speed Gust Speed Precip Events Conditions
12:15 AM 19.4 °F 14.3 °F 17.6 °F 93% 30.23 in 7.0 mi NNW 3.5 mph - N/A   Overcast
12:34 AM 19.4 °F 11.5 °F 17.6 °F 93% 30.23 in 10.0 mi North 5.8 mph - N/A   Overcast
12:54 AM 19.4 °F 11.5 °F 17.6 °F 93% 30.23 in 10.0 mi North 5.8 mph - N/A   Overcast
1:15 AM 19.4 °F 10.4 °F 17.6 °F 93% 30.23 in 10.0 mi North 6.9 mph - N/A   Overcast
1:34 AM 19.4 °F - 17.6 °F 93% 30.21 in 10.0 mi Calm Calm - N/A   Overcast
1:55 AM 19.4 °F - 17.6 °F 93% 30.22 in 10.0 mi Calm Calm - N/A   Overcast
2:15 AM 19.4 °F - 17.6 °F 93% 30.22 in 10.0 mi Calm Calm - N/A   Overcast
2:34 AM 19.4 °F - 17.6 °F 93% 30.23 in 10.0 mi Calm Calm - N/A   Unknown
2:55 AM 19.4 °F - 17.6 °F 93% 30.23 in 10.0 mi Calm Calm - N/A   Overcast
3:14 AM 19.4 °F - 17.6 °F 93% 30.23 in 10.0 mi Calm Calm - N/A   Overcast
3:34 AM 19.4 °F - 17.6 °F 93% 30.23 in 10.0 mi Calm Calm - N/A   Overcast
3:55 AM 19.4 °F 14.3 °F 17.6 °F 93% 30.22 in 10.0 mi WNW 3.5 mph - N/A   Overcast
4:14 AM 19.4 °F 14.3 °F 17.6 °F 93% 30.22 in 10.0 mi NW 3.5 mph - N/A   Overcast
4:34 AM 19.4 °F 14.3 °F 15.8 °F 86% 30.21 in 10.0 mi West 3.5 mph - N/A   Overcast
4:55 AM 19.4 °F 12.8 °F 15.8 °F 86% 30.21 in 10.0 mi West 4.6 mph - N/A   Overcast
5:14 AM 19.4 °F 12.8 °F 17.6 °F 93% 30.21 in 10.0 mi WNW 4.6 mph - N/A   Overcast
5:34 AM 19.4 °F 12.8 °F 15.8 °F 86% 30.21 in 10.0 mi NW 4.6 mph - N/A   Overcast
5:55 AM 19.4 °F 14.3 °F 17.6 °F 93% 30.20 in 10.0 mi WNW 3.5 mph - N/A   Overcast
6:15 AM 19.4 °F - 15.8 °F 86% 30.20 in 10.0 mi Calm Calm - N/A   Overcast
6:34 AM 19.4 °F - 15.8 °F 86% 30.19 in 10.0 mi Calm Calm - N/A   Overcast
6:55 AM 19.4 °F - 15.8 °F 86% 30.19 in 10.0 mi Calm Calm - N/A   Unknown
7:14 AM 19.4 °F - 15.8 °F 86% 30.19 in 10.0 mi Calm Calm - N/A   Overcast
7:34 AM 19.4 °F - 15.8 °F 86% 30.20 in 10.0 mi Calm Calm - N/A   Unknown
7:55 AM 19.4 °F - 15.8 °F 86% 30.20 in 10.0 mi Calm Calm - N/A   Overcast
8:14 AM 19.4 °F - 15.8 °F 86% 30.19 in 10.0 mi Calm Calm - N/A   Unknown
8:34 AM 19.4 °F - 15.8 °F 86% 30.19 in 10.0 mi Calm Calm - N/A   Overcast
8:55 AM 19.4 °F - 15.8 °F 86% 30.19 in 10.0 mi Calm Calm - N/A   Overcast
9:14 AM 19.4 °F - 15.8 °F 86% 30.19 in 10.0 mi Calm Calm - N/A   Overcast
9:34 AM 19.4 °F 14.3 °F 15.8 °F 86% 30.18 in 10.0 mi East 3.5 mph - N/A   Overcast
9:55 AM 19.4 °F - 15.8 °F 86% 30.17 in 10.0 mi Calm Calm - N/A   Overcast
10:14 AM 19.4 °F 14.3 °F 15.8 °F 86% 30.18 in 10.0 mi South 3.5 mph - N/A   Overcast
10:35 AM 19.4 °F 14.3 °F 15.8 °F 86% 30.18 in 10.0 mi SE 3.5 mph - N/A   Overcast
10:54 AM 19.4 °F 10.4 °F 17.6 °F 93% 30.18 in 10.0 mi SSE 6.9 mph - N/A   Overcast
11:14 AM 19.4 °F 12.8 °F 15.8 °F 86% 30.17 in 10.0 mi SE 4.6 mph - N/A   Overcast
11:35 AM 19.4 °F 11.5 °F 17.6 °F 93% 30.16 in 10.0 mi SE 5.8 mph - N/A   Overcast
11:54 AM 19.4 °F 12.8 °F 17.6 °F 93% 30.15 in 10.0 mi SSE 4.6 mph - N/A   Overcast
12:14 PM 21.2 °F 13.6 °F 17.6 °F 86% 30.13 in 10.0 mi South 5.8 mph - N/A   Overcast
12:35 PM 21.2 °F 12.6 °F 17.6 °F 86% 30.11 in 10.0 mi SE 6.9 mph - N/A   Overcast
12:54 PM 21.2 °F 12.6 °F 17.6 °F 86% 30.11 in 10.0 mi SSE 6.9 mph - N/A   Overcast
1:14 PM 21.2 °F 12.6 °F 17.6 °F 86% 30.09 in 10.0 mi SE 6.9 mph - N/A   Overcast
1:35 PM 21.2 °F 13.6 °F 17.6 °F 86% 30.08 in 10.0 mi SE 5.8 mph - N/A   Mostly Cloudy
1:54 PM 21.2 °F 12.6 °F 17.6 °F 86% 30.08 in 10.0 mi SSE 6.9 mph - N/A   Mostly Cloudy
2:14 PM 21.2 °F 11.7 °F 17.6 °F 86% 30.06 in 10.0 mi South 8.1 mph - N/A   Overcast
2:35 PM 21.2 °F 10.9 °F 17.6 °F 86% 30.05 in 10.0 mi SSE 9.2 mph - N/A   Mostly Cloudy
2:54 PM 21.2 °F 11.7 °F 17.6 °F 86% 30.04 in 10.0 mi SSE 8.1 mph - N/A   Scattered Clouds
3:15 PM 21.2 °F 11.7 °F 17.6 °F 86% 30.03 in 10.0 mi SSE 8.1 mph - N/A   Scattered Clouds
3:35 PM 21.2 °F 13.6 °F 17.6 °F 86% 30.03 in 10.0 mi SSE 5.8 mph - N/A   Clear
3:54 PM 21.2 °F 10.9 °F 17.6 °F 86% 30.02 in 10.0 mi SSE 9.2 mph - N/A   Clear
4:15 PM 21.2 °F 11.7 °F 17.6 °F 86% 30.01 in 10.0 mi SE 8.1 mph - N/A   Scattered Clouds
4:35 PM 21.2 °F 12.6 °F 17.6 °F 86% 30.01 in 10.0 mi ESE 6.9 mph - N/A   Scattered Clouds
4:54 PM 21.2 °F 13.6 °F 17.6 °F 86% 30.01 in 10.0 mi ESE 5.8 mph - N/A   Scattered Clouds
5:15 PM 19.4 °F 11.5 °F 17.6 °F 93% 30.00 in 10.0 mi ESE 5.8 mph - N/A   Scattered Clouds
5:34 PM 19.4 °F 10.4 °F 17.6 °F 93% 29.99 in 10.0 mi ESE 6.9 mph - N/A   Scattered Clouds
5:54 PM 21.2 °F 10.9 °F 17.6 °F 86% 29.98 in 10.0 mi ESE 9.2 mph - N/A   Mostly Cloudy
6:15 PM 21.2 °F 10.9 °F 17.6 °F 86% 29.97 in 10.0 mi ESE 9.2 mph - N/A   Overcast
6:34 PM 21.2 °F 12.6 °F 17.6 °F 86% 29.97 in 10.0 mi ESE 6.9 mph - N/A   Overcast
6:54 PM 21.2 °F 9.5 °F 17.6 °F 86% 29.96 in 10.0 mi ESE 11.5 mph - N/A   Overcast
7:15 PM 21.2 °F 10.9 °F 19.4 °F 93% 29.95 in 7.0 mi ESE 9.2 mph - N/A Snow Light Snow
7:34 PM 21.2 °F 11.7 °F 19.4 °F 93% 29.94 in 10.0 mi ESE 8.1 mph - N/A   Overcast
7:54 PM 21.2 °F 10.9 °F 19.4 °F 93% 29.93 in 10.0 mi ESE 9.2 mph - N/A   Overcast
8:15 PM 21.2 °F 8.9 °F 17.6 °F 86% 29.93 in 10.0 mi ESE 12.7 mph - N/A Snow Light Snow
8:34 PM 21.2 °F 10.9 °F 19.4 °F 93% 29.93 in 10.0 mi ESE 9.2 mph - N/A   Overcast
8:54 PM 21.2 °F 9.5 °F 17.6 °F 86% 29.93 in 7.0 mi ESE 11.5 mph - N/A Snow Light Snow
9:15 PM 21.2 °F 9.5 °F 19.4 °F 93% 29.92 in 4.0 mi ESE 11.5 mph - N/A Snow Light Snow
9:34 PM 21.2 °F 10.9 °F 19.4 °F 93% 29.91 in 1.2 mi ESE 9.2 mph - N/A Snow Light Snow
9:55 PM 21.2 °F 11.7 °F 19.4 °F 93% 29.91 in 1.2 mi ESE 8.1 mph - N/A Snow Light Snow
10:14 PM 21.2 °F 10.1 °F 19.4 °F 93% 29.90 in 1.8 mi ESE 10.4 mph - N/A Snow Light Snow
10:34 PM 21.2 °F 10.9 °F 19.4 °F 93% 29.88 in 2.0 mi East 9.2 mph - N/A Snow Light Snow
10:55 PM 21.2 °F 10.9 °F 19.4 °F 93% 29.88 in 5.0 mi East 9.2 mph 16.1 mph N/A Snow Light Snow
11:14 PM 21.2 °F 8.9 °F 19.4 °F 93% 29.87 in 7.0 mi East 12.7 mph - N/A Snow Light Snow
11:34 PM 21.2 °F 9.5 °F 19.4 °F 93% 29.87 in 4.0 mi East 11.5 mph - N/A Snow Light Snow
11:55 PM 21.2 °F 10.1 °F 19.4 °F 93% 29.86 in 4.0 mi East 10.4 mph - N/A Snow Light Snow